This is the latest recevied weather packets stored in our database for station/object DO1YM-13. If no packets are shown the sender has not sent any weather packets the latest 10 day(s).
| Time | Temp. | Humidity | Pressure | Rain* | Wind** | Luminosity | Snow |
|---|---|---|---|---|---|---|---|
| 1787583947 | 20.56° C | 54% | 1017.3 hPa | 0 mm | - | 50 W/m² | - |
| 1787583648 | 20.56° C | 53% | 1017.6 hPa | 0 mm | - | 43 W/m² | - |
| 1787583348 | 20.56° C | 56% | 1017.6 hPa | 0 mm | - | 46 W/m² | - |
| 1787583048 | 20.56° C | 54% | 1017.6 hPa | 0 mm | - | 48 W/m² | - |
| 1787582747 | 20.56° C | 53% | 1017.6 hPa | 0 mm | - | 48 W/m² | - |
| 1787582447 | 20.56° C | 54% | 1017.6 hPa | 0 mm | - | 57 W/m² | - |
| 1787582147 | 21.11° C | 53% | 1017.6 hPa | 0 mm | - | 64 W/m² | - |
| 1787581850 | 20.56° C | 55% | 1017.6 hPa | 0 mm | - | 75 W/m² | - |
| 1787581548 | 21.11° C | 55% | 1017.9 hPa | 0 mm | - | 99 W/m² | - |
| 1787581248 | 20.56° C | 55% | 1017.9 hPa | 0 mm | - | 104 W/m² | - |
| 1787580947 | 20.56° C | 55% | 1017.9 hPa | 0 mm | - | 93 W/m² | - |
| 1787580648 | 20° C | 58% | 1017.9 hPa | 0 mm | - | 78 W/m² | - |
| 1787580348 | 19.44° C | 59% | 1017.9 hPa | 0 mm | - | 62 W/m² | - |
| 1787580048 | 19.44° C | 61% | 1017.9 hPa | 0 mm | - | 75 W/m² | - |
| 1787579748 | 19.44° C | 61% | 1018.3 hPa | 0 mm | - | 77 W/m² | - |
| 1787579448 | 19.44° C | 58% | 1017.9 hPa | 0 mm | - | 68 W/m² | - |
| 1787579148 | 19.44° C | 58% | 1017.9 hPa | 0 mm | - | 59 W/m² | - |
| 1787578848 | 19.44° C | 57% | 1017.9 hPa | 0 mm | - | 54 W/m² | - |
| 1787578548 | 20° C | 58% | 1018.3 hPa | 0 mm | - | 63 W/m² | - |
| 1787578248 | 20° C | 59% | 1018.3 hPa | 0 mm | - | 82 W/m² | - |
| 1787577947 | 20° C | 58% | 1017.9 hPa | 0 mm | - | 86 W/m² | - |
| 1787577647 | 20° C | 57% | 1017.9 hPa | 0 mm | - | 80 W/m² | - |
| 1787577348 | 20° C | 59% | 1018.3 hPa | 0 mm | - | 66 W/m² | - |
| 1787577048 | 20° C | 58% | 1018.3 hPa | 0 mm | - | 50 W/m² | - |
| 1787576748 | 20° C | 58% | 1018.3 hPa | 0 mm | - | 50 W/m² | - |
* Rain latest hour (hover to see other rain measurements)
** Current wind speed in m/s (hover to see current wind gust speed)